FW2560 Weather Reports


Display with metric or nautical units.
time (UTC)temp
F
wind
direction
speed
MPH
gust
MPH
rain 1hr
in
rain 24hr
in
rain mn
in
humidity
%
barometer
mb
20260506112504 65 196 8.0 14.0 0.00 0.00 0.00 90 997.7
20260506112004 65 193 7.0 10.0 0.00 0.00 0.00 91 997.6
20260506111505 64 177 9.0 14.0 0.00 0.00 0.00 91 997.7
20260506111005 64 186 5.0 10.0 0.00 0.00 0.00 91 997.6
20260506110504 64 165 5.0 12.0 0.00 0.00 0.00 91 997.4
20260506110005 64 193 5.0 9.0 0.00 0.00 0.00 91 997.3
20260506105004 63 178 5.0 9.0 0.00 0.00 0.00 91 997.4
20260506104504 63 190 5.0 9.0 0.00 0.00 0.00 91 997.5
20260506104004 63 185 5.0 12.0 0.00 0.00 0.00 91 997.5
20260506103505 63 192 6.0 12.0 0.00 0.00 0.00 91 997.6
20260506103004 63 187 6.0 9.0 0.00 0.00 0.00 91 997.6
20260506102504 63 187 6.0 12.0 0.00 0.00 0.00 91 997.6
20260506102004 63 189 7.0 12.0 0.00 0.00 0.00 91 997.5
20260506101504 63 190 6.0 9.0 0.00 0.00 0.00 91 997.4
20260506101005 63 184 4.0 10.0 0.00 0.00 0.00 91 997.2
20260506100504 63 191 5.0 9.0 0.00 0.00 0.00 91 997.2
20260506100005 63 181 5.0 9.0 0.00 0.00 0.00 90 997.2
20260506094504 63 179 4.0 10.0 0.00 0.00 0.00 90 997.3
20260506094005 63 178 5.0 10.0 0.00 0.00 0.00 90 997.4
20260506093504 63 174 3.0 7.0 0.00 0.00 0.00 90 997.4
20260506093004 63 185 5.0 8.0 0.00 0.00 0.00 90 997.5
20260506092005 63 194 5.0 10.0 0.00 0.00 0.00 90 997.5
20260506091505 63 196 6.0 12.0 0.00 0.00 0.00 90 997.5
20260506091004 63 200 7.0 12.0 0.00 0.00 0.00 92 997.7
20260506090505 63 198 8.0 12.0 0.00 0.00 0.00 90 997.7
20260506090004 63 192 9.0 12.0 0.00 0.00 0.00 90 997.7
20260506085505 63 193 7.0 12.0 0.00 0.00 0.00 90 997.7
20260506085004 63 196 8.0 12.0 0.00 0.00 0.00 90 997.7
20260506084504 63 194 6.0 10.0 0.00 0.00 0.00 90 997.7
20260506084005 63 189 6.0 12.0 0.00 0.00 0.00 89 997.7
20260506083004 63 175 7.0 10.0 0.00 0.00 0.00 89 997.7
20260506082004 63 198 6.0 12.0 0.00 0.00 0.00 89 997.6
20260506081504 63 188 4.0 12.0 0.00 0.00 0.00 89 997.6
20260506081004 63 194 2.0 3.0 0.00 0.00 0.00 89 997.7
20260506080504 64 195 6.0 9.0 0.00 0.00 0.00 89 997.5
20260506073504 64 190 5.0 9.0 0.00 0.00 0.00 88 997.5
20260506073004 64 187 9.0 13.0 0.00 0.00 0.00 88 997.5
20260506071504 64 184 4.0 10.0 0.00 0.00 0.00 88 997.5
20260506071004 64 192 5.0 12.0 0.00 0.00 0.00 88 997.4
20260506070504 64 193 7.0 10.0 0.00 0.00 0.00 88 997.5
20260506061504 64 197 10.0 14.0 0.00 0.00 0.00 88 997.9
20260506061004 64 199 11.0 16.0 0.00 0.00 0.00 88 998.0
20260506060504 64 200 9.0 14.0 0.00 0.00 0.00 88 998.1
20260506051004 64 195 12.0 16.0 0.00 0.00 0.00 89 998.6
20260506050504 65 194 11.0 16.0 0.00 0.00 0.00 89 998.6
20260506044504 65 194 11.0 15.0 0.00 0.00 0.00 88 998.6
20260506044004 65 195 10.0 14.0 0.00 0.00 0.00 88 998.7
20260506043505 65 198 9.0 12.0 0.00 0.00 0.00 88 998.7
20260506042504 65 196 11.0 16.0 0.00 0.00 0.00 88 998.8
20260506042004 65 197 12.0 15.0 0.00 0.00 0.00 87 998.8
20260506041004 65 201 10.0 15.0 0.00 0.00 0.00 86 998.9
20260506040505 65 202 11.0 14.0 0.00 0.00 0.00 86 998.8
20260506040005 65 194 11.0 16.0 0.00 0.00 0.00 85 998.8
20260506035504 65 199 12.0 17.0 0.00 0.00 0.00 85 998.8
20260506035004 65 199 14.0 18.0 0.00 0.00 0.00 85 998.8
20260506034504 66 199 13.0 20.0 0.00 0.00 0.00 85 998.7
20260506034003 66 193 13.0 23.0 0.00 0.00 0.00 84 998.7
20260506033504 66 199 14.0 20.0 0.00 0.00 0.00 84 998.7
20260506033004 66 197 13.0 20.0 0.00 0.00 0.00 83 998.7
20260506032504 66 193 13.0 17.0 0.00 0.00 0.00 83 998.7
20260506032004 66 195 10.0 13.0 0.00 0.00 0.00 82 998.7
20260506031503 66 194 10.0 20.0 0.00 0.00 0.00 82 998.7
20260506031004 66 197 11.0 16.0 0.00 0.00 0.00 81 998.7
20260506030504 66 196 12.0 17.0 0.00 0.00 0.00 81 998.8
20260506030004 66 184 9.0 13.0 0.00 0.00 0.00 81 998.8
20260506025503 66 186 9.0 16.0 0.00 0.00 0.00 80 998.8
20260506025004 66 189 6.0 15.0 0.00 0.00 0.00 80 998.8
20260506024505 66 185 10.0 16.0 0.00 0.00 0.00 80 998.9
20260506024004 67 188 7.0 14.0 0.00 0.00 0.00 79 998.9
20260506022504 67 184 10.0 18.0 0.00 0.00 0.00 79 998.9
20260506021504 67 196 12.0 18.0 0.00 0.00 0.00 78 998.8
20260506021004 67 196 11.0 18.0 0.00 0.00 0.00 77 998.7
20260506020504 67 186 10.0 16.0 0.00 0.00 0.00 77 998.6
20260506020004 68 200 9.0 14.0 0.00 0.00 0.00 77 998.6
20260506015504 68 200 12.0 20.0 0.00 0.00 0.00 76 998.6
20260506015003 68 199 13.0 20.0 0.00 0.00 0.00 76 998.6
20260506014503 68 196 9.0 18.0 0.00 0.00 0.00 77 998.6
20260506014004 68 190 13.0 20.0 0.00 0.00 0.00 75 998.5
20260506013506 68 192 13.0 20.0 0.00 0.00 0.00 75 998.5
20260506013006 68 189 12.0 20.0 0.00 0.00 0.00 75 998.4
20260506012505 69 195 13.0 20.0 0.00 0.00 0.00 74 998.4
20260506012006 69 190 12.0 20.0 0.00 0.00 0.00 74 998.4
20260506011506 69 186 13.0 20.0 0.00 0.00 0.00 74 998.4
20260506011006 69 193 14.0 23.0 0.00 0.00 0.00 74 998.3
20260506010506 69 194 14.0 21.0 0.00 0.00 0.00 74 998.4
20260506010006 69 195 13.0 20.0 0.00 0.00 0.00 73 998.4
20260506005505 69 199 16.0 22.0 0.00 0.00 0.00 73 998.4
20260506005005 69 188 16.0 21.0 0.00 0.00 0.00 72 998.3
20260506003505 70 198 16.0 25.0 0.00 0.00 0.00 71 998.1
20260506002505 70 197 14.0 24.0 0.00 0.00 0.00 71 998.0
20260506002005 70 199 13.0 20.0 0.00 0.00 0.00 71 998.1
20260506001505 71 192 12.0 20.0 0.00 0.00 0.00 70 998.0
20260506000505 71 201 14.0 23.0 0.00 0.00 0.00 69 997.8
20260506000005 71 193 17.0 26.0 0.00 0.00 0.00 69 997.7
20260505235005 71 199 13.0 22.0 0.00 0.00 0.00 69 997.5
20260505234505 72 193 12.0 20.0 0.00 0.00 0.00 69 997.5
20260505234005 72 198 12.0 20.0 0.00 0.00 0.00 69 997.5
20260505233506 72 195 11.0 20.0 0.00 0.00 0.00 69 997.3
20260505233005 72 192 10.0 20.0 0.00 0.00 0.00 69 997.4
20260505232505 73 192 14.0 22.0 0.00 0.00 0.00 68 997.4
20260505232005 73 195 12.0 16.0 0.00 0.00 0.00 68 997.3
20260505231505 73 179 13.0 17.0 0.00 0.00 0.00 68 997.2
20260505230505 74 191 10.0 16.0 0.00 0.00 0.00 67 997.2
20260505230006 74 189 16.0 22.0 0.00 0.00 0.00 67 997.1
20260505225505 74 195 13.0 24.0 0.00 0.00 0.00 67 997.1
20260505224505 74 193 18.0 26.0 0.00 0.00 0.00 66 997.1
20260505224006 75 190 18.0 26.0 0.00 0.00 0.00 65 997.1
20260505223505 75 197 16.0 25.0 0.00 0.00 0.00 65 997.1
20260505223005 75 194 17.0 24.0 0.00 0.00 0.00 65 997.1
20260505222005 75 195 16.0 23.0 0.00 0.00 0.00 66 997.2
20260505221505 75 197 14.0 22.0 0.00 0.00 0.00 65 997.2
20260505221005 75 168 13.0 22.0 0.00 0.00 0.00 65 997.3
20260505220005 75 196 15.0 30.0 0.00 0.00 0.00 64 997.1
20260505215505 76 191 13.0 25.0 0.00 0.00 0.00 64 997.1
20260505215005 76 198 15.0 26.0 0.00 0.00 0.00 63 997.1
20260505214505 76 193 15.0 30.0 0.00 0.00 0.00 63 997.0
20260505214006 77 191 15.0 25.0 0.00 0.00 0.00 63 997.0
20260505213505 77 201 11.0 16.0 0.00 0.00 0.00 62 997.0
20260505213005 77 191 16.0 24.0 0.00 0.00 0.00 62 996.9
20260505212505 77 178 14.0 25.0 0.00 0.00 0.00 61 997.0
20260505212005 78 196 20.0 26.0 0.00 0.00 0.00 60 997.0
20260505211505 78 196 13.0 24.0 0.00 0.00 0.00 61 996.9
20260505211005 78 191 13.0 22.0 0.00 0.00 0.00 61 996.9
20260505210506 78 203 17.0 25.0 0.00 0.00 0.00 60 996.9
20260505210005 78 196 14.0 24.0 0.00 0.00 0.00 60 996.9
20260505205505 78 176 13.0 20.0 0.00 0.00 0.00 60 997.0
20260505205006 78 176 17.0 26.0 0.00 0.00 0.00 59 996.9
20260505204505 78 197 17.0 25.0 0.00 0.00 0.00 59 996.9
20260505204005 78 195 17.0 24.0 0.00 0.00 0.00 59 996.9
20260505203505 78 177 12.0 22.0 0.00 0.00 0.00 58 997.0
20260505203005 79 201 19.0 26.0 0.00 0.00 0.00 57 997.0
20260505202505 79 195 17.0 28.0 0.00 0.00 0.00 57 997.1
20260505202005 79 197 16.0 26.0 0.00 0.00 0.00 57 997.1
20260505201505 79 199 14.0 28.0 0.00 0.00 0.00 56 997.2
20260505201006 79 199 18.0 26.0 0.00 0.00 0.00 55 997.3
20260505200506 80 188 17.0 26.0 0.00 0.00 0.00 54 997.3
20260505200005 80 191 14.0 22.0 0.00 0.00 0.00 53 997.2
20260505195505 80 186 17.0 25.0 0.00 0.00 0.00 52 997.3
20260505195005 80 195 17.0 26.0 0.00 0.00 0.00 53 997.5
20260505194505 80 185 14.0 24.0 0.00 0.00 0.00 52 997.6
20260505194005 80 199 16.0 26.0 0.00 0.00 0.00 52 997.7
20260505193506 80 198 20.0 28.0 0.00 0.00 0.00 52 997.6
20260505193005 80 191 12.0 21.0 0.00 0.00 0.00 53 997.7
20260505192505 80 189 11.0 20.0 0.00 0.00 0.00 52 997.9
20260505192005 80 199 14.0 24.0 0.00 0.00 0.00 52 997.9
20260505191505 80 190 17.0 22.0 0.00 0.00 0.00 54 998.0
20260505191005 79 196 18.0 26.0 0.00 0.00 0.00 52 998.2
20260505190505 80 184 19.0 25.0 0.00 0.00 0.00 52 998.2
20260505190005 80 188 17.0 24.0 0.00 0.00 0.00 52 998.2
20260505185505 79 204 17.0 30.0 0.00 0.00 0.00 53 998.2
20260505185005 80 184 15.0 26.0 0.00 0.00 0.00 53 998.2
20260505184505 80 202 13.0 20.0 0.00 0.00 0.00 54 998.3
20260505184005 79 192 18.0 26.0 0.00 0.00 0.00 53 998.2
20260505183505 80 192 10.0 22.0 0.00 0.00 0.00 53 998.3
20260505183005 80 199 19.0 24.0 0.00 0.00 0.00 54 998.3
20260505182505 80 205 17.0 24.0 0.00 0.00 0.00 53 998.3
20260505182005 80 191 13.0 20.0 0.00 0.00 0.00 53 998.3
20260505181505 80 192 17.0 25.0 0.00 0.00 0.00 53 998.2
20260505181005 80 199 16.0 23.0 0.00 0.00 0.00 52 998.3
20260505180505 80 200 20.0 24.0 0.00 0.00 0.00 52 998.4
20260505180006 80 222 13.0 20.0 0.00 0.00 0.00 55 998.5
20260505175005 80 220 14.0 20.0 0.00 0.00 0.00 55 998.6
20260505174505 79 205 15.0 20.0 0.00 0.00 0.00 53 998.6
20260505174005 79 192 14.0 22.0 0.00 0.00 0.00 53 998.6
20260505173505 79 194 13.0 20.0 0.00 0.00 0.00 53 998.8
20260505173005 79 220 12.0 20.0 0.00 0.00 0.00 56 998.7
20260505172505 79 158 11.0 20.0 0.00 0.00 0.00 54 998.8
20260505171505 79 212 13.0 22.0 0.00 0.00 0.00 55 999.0
20260505171005 78 214 13.0 20.0 0.00 0.00 0.00 57 999.0
20260505170005 78 200 16.0 22.0 0.00 0.00 0.00 57 999.1
20260505165505 78 255 14.0 20.0 0.00 0.00 0.00 55 999.1
20260505165005 78 219 12.0 18.0 0.00 0.00 0.00 57 999.2
20260505164505 78 207 12.0 20.0 0.00 0.00 0.00 57 999.2
20260505164004 77 219 15.0 21.0 0.00 0.00 0.00 56 999.2
20260505163505 77 237 17.0 23.0 0.00 0.00 0.00 56 999.2
20260505163005 77 226 15.0 20.0 0.00 0.00 0.00 56 999.2
20260505162505 77 222 14.0 24.0 0.00 0.00 0.00 57 999.2
20260505162004 77 239 16.0 22.0 0.00 0.00 0.00 57 999.4
20260505161505 77 212 16.0 25.0 0.00 0.00 0.00 57 999.4
20260505161005 77 216 15.0 24.0 0.00 0.00 0.00 58 999.5
20260505160505 77 201 16.0 24.0 0.00 0.00 0.00 58 999.5
20260505153004 75 220 12.0 20.0 0.00 0.00 0.00 62 999.6
20260505152505 75 218 14.0 20.0 0.00 0.00 0.00 62 999.6
20260505151504 75 202 13.0 20.0 0.00 0.00 0.00 64 999.7
20260505151004 74 216 13.0 20.0 0.00 0.00 0.00 63 999.7
20260505150505 74 220 14.0 18.0 0.00 0.00 0.00 63 999.5
20260505140505 71 237 12.0 18.0 0.00 0.00 0.00 68 999.8
20260505125005 67 218 10.0 18.0 0.00 0.00 0.00 77 999.8
20260505124504 66 222 10.0 18.0 0.00 0.00 0.00 77 999.8
20260505124005 66 231 10.0 16.0 0.00 0.00 0.00 79 999.8
20260505123504 65 238 13.0 17.0 0.00 0.00 0.00 80 999.8
20260505123004 65 232 9.0 15.0 0.00 0.00 0.00 81 999.8
20260505122504 64 209 11.0 15.0 0.00 0.00 0.00 82 999.8
20260505122004 64 231 11.0 17.0 0.00 0.00 0.00 82 999.9
20260505121505 64 213 10.0 15.0 0.00 0.00 0.00 82 999.8
20260505121005 63 222 10.0 13.0 0.00 0.00 0.00 83 999.8
20260505120504 63 218 9.0 14.0 0.00 0.00 0.00 83 999.7
20260505115505 62 218 9.0 15.0 0.00 0.00 0.00 84 999.7
20260505115004 62 221 8.0 12.0 0.00 0.00 0.00 85 999.7
20260505114505 61 224 9.0 13.0 0.00 0.00 0.00 85 999.8
20260505114004 61 219 9.0 14.0 0.00 0.00 0.00 86 999.8
20260505113505 61 220 9.0 13.0 0.00 0.00 0.00 86 999.7
20260505113005 60 219 10.0 15.0 0.00 0.00 0.00 86 999.7